Theta_e
341 341 340 340 342 341 338 337 339 341 343 345 348 350 351 351 350 348 346 345 335 334 335 329 328 330 328 326 324 319 329 333 334 340 336 334 336 329 326 326 322 320 321
342 341 341 340 340 343 342 339 339 340 341 343 345 347 348 351 351 350 348 342 340 334 333 337 337 331 319 316 315 314 320 320 330 337 333 333 330 327 325 320 318 317 318
342 342 341 341 340 340 344 345 341 341 341 342 342 343 345 348 351 352 350 342 340 338 336 340 339 327 317 320 315 314 313 312 315 328 331 329 328 326 324 319 316 315 318
343 343 343 342 341 342 342 344 347 344 343 342 342 342 343 345 353 353 352 343 341 342 339 341 338 328 316 318 316 314 313 315 320 328 327 326 325 322 322 319 320 321 319
343 343 343 343 343 342 342 342 343 345 347 347 345 345 346 355 355 352 350 344 340 342 342 341 339 330 321 323 323 320 316 314 322 323 323 323 322 322 320 320 319 321 323
344 344 344 344 344 344 344 344 344 343 343 345 348 350 353 358 349 349 345 341 339 338 341 339 337 335 327 319 315 314 317 315 317 322 322 322 325 319 319 320 320 322 322
345 345 344 345 345 344 344 345 346 346 348 350 352 357 353 353 351 348 338 336 336 338 338 339 340 335 327 316 316 316 318 312 311 318 323 322 322 322 322 321 324 324 322
346 345 346 346 346 346 345 345 346 347 350 354 355 354 354 354 345 338 336 338 335 337 335 342 341 330 325 317 319 320 320 311 311 319 322 323 323 324 321 323 323 320 322
348 347 346 345 345 346 346 348 351 355 359 359 355 353 353 350 340 342 338 332 338 333 332 341 340 332 322 319 323 329 324 322 312 312 313 316 315 316 318 322 322 321 319
363 362 359 357 355 353 352 350 356 362 362 358 358 354 353 349 342 340 335 335 334 332 332 340 340 334 324 321 328 329 322 322 320 316 315 316 316 316 316 317 320 320 320
357 356 358 358 358 357 356 355 354 357 355 354 357 355 348 344 342 337 336 342 337 335 338 341 339 332 326 322 324 327 319 321 319 323 323 322 321 322 322 322 323 322 320
348 349 349 350 351 351 354 357 357 356 356 357 356 349 344 343 341 338 342 336 336 339 340 340 339 332 328 323 322 320 311 314 322 321 321 320 320 321 321 322 322 320 321
335 341 348 352 351 352 352 352 355 356 355 353 349 348 343 341 344 345 345 338 342 343 338 339 338 335 325 323 317 311 311 317 321 321 320 320 321 322 320 321 321 320 318
341 340 345 352 353 354 354 353 353 352 353 350 349 347 348 345 346 346 343 344 339 340 339 341 335 332 324 324 313 312 313 319 320 319 319 321 322 324 323 322 321 317 319
343 344 344 346 351 349 347 346 345 345 347 347 346 347 346 345 345 343 342 340 339 339 340 336 331 327 327 324 320 317 316 318 318 319 321 322 323 323 322 320 319 318 320
345 348 345 343 345 346 342 338 337 337 337 336 340 343 343 343 343 344 341 340 341 340 339 336 329 330 327 324 322 321 321 321 321 321 322 323 323 321 320 318 317 319 320
352 350 348 346 347 347 347 346 344 336 333 334 333 333 336 338 339 341 339 342 342 341 337 332 332 330 329 327 325 324 323 322 322 322 322 323 321 320 318 317 318 319 320
338 340 347 348 346 345 346 345 343 343 343 341 335 335 335 335 339 339 341 342 340 337 335 334 332 330 329 325 324 321 320 323 323 322 322 321 320 318 316 317 320 319 319
347 348 346 346 346 345 345 343 342 342 342 342 338 336 336 335 339 339 340 340 337 336 336 334 329 325 322 319 319 321 322 323 322 321 321 320 318 317 319 320 319 318 316
345 343 344 345 344 341 341 343 343 343 343 342 341 340 336 335 335 338 339 338 337 334 332 331 325 322 320 318 317 320 323 321 321 321 320 318 319 320 319 319 318 316 316
344 345 339 343 343 341 341 343 344 343 342 341 341 340 335 336 336 335 337 337 335 334 332 328 322 320 318 318 322 323 322 321 321 318 318 320 319 318 318 316 315 314 313
343 345 343 342 342 343 342 343 345 342 341 341 340 340 334 335 336 335 335 336 336 335 329 322 321 320 317 320 322 321 321 320 319 319 319 317 317 317 315 314 314 314 314
342 342 343 344 343 342 340 343 342 341 341 341 341 340 335 335 334 335 335 335 335 332 324 319 321 324 320 322 321 320 319 319 319 317 316 316 316 315 314 314 314 314 313
343 344 342 343 343 343 342 340 340 338 337 340 340 340 338 336 336 334 336 331 331 328 324 322 322 322 322 320 319 318 317 317 316 314 315 315 314 311 314 314 314 314 313
343 342 343 343 343 340 339 338 337 337 337 336 335 336 338 336 335 336 336 330 328 323 323 320 320 321 318 318 317 315 313 313 312 307 311 312 313 314 314 314 313 313 313
343 343 343 342 340 339 339 338 336 335 334 335 334 334 335 335 336 336 334 325 323 324 321 319 319 319 318 317 312 313 312 307 304 304 307 312 313 313 313 313 313 312 311
Wind_Speed
23 21 21 20 19 19 21 20 21 21 20 18 16 14 12 13 11 9 5 8 8 8 8 9 7 8 5 4 5 7 6 6 8 5 9 11 10 6 5 5 5 4 8
24 23 21 22 23 22 21 21 21 21 20 20 18 17 16 15 15 12 11 8 9 9 10 10 9 7 8 8 7 5 6 8 6 7 10 8 9 8 6 6 4 4 2
24 25 24 24 25 25 23 21 22 22 22 22 22 21 20 18 17 15 13 12 11 11 11 11 11 8 8 6 4 3 3 3 5 5 4 7 7 6 4 4 4 5 3
22 23 24 24 25 25 25 24 23 23 24 25 25 24 23 22 17 14 13 12 9 12 11 11 12 10 9 7 5 4 3 1 3 4 5 7 6 6 4 4 3 3 0
23 24 24 22 23 25 27 28 28 28 27 26 27 26 24 17 20 15 11 8 9 15 15 12 12 11 11 9 5 5 5 4 1 5 6 7 6 4 4 4 2 2 4
20 20 20 21 22 22 23 25 28 31 31 29 25 23 19 25 23 24 21 11 29 24 15 12 18 12 13 10 10 8 6 5 7 7 7 7 8 6 5 3 3 3 3
21 21 21 22 22 22 22 23 24 25 24 23 22 20 27 28 25 18 5 15 21 26 16 15 19 15 13 12 11 8 5 3 5 7 7 6 7 7 5 3 4 4 5
21 22 22 22 22 21 22 22 22 21 20 19 19 24 26 25 17 15 15 33 25 22 20 17 17 17 13 13 11 8 4 2 4 4 4 5 5 6 5 5 5 5 7
13 17 19 21 22 21 21 21 18 16 16 21 22 21 23 26 28 15 26 23 29 27 23 20 21 18 14 14 11 10 7 7 5 5 5 6 7 7 6 5 6 7 8
4 3 5 9 12 13 14 14 12 13 19 17 18 17 18 20 23 17 19 25 18 24 22 21 25 20 16 15 12 10 7 7 7 5 4 3 2 2 3 5 6 9 10
9 6 4 2 0 2 3 5 7 11 12 13 15 15 18 17 26 21 15 21 29 21 19 22 27 23 18 16 13 9 8 8 8 7 5 5 6 6 8 11 10 11 12
9 8 7 6 5 4 2 3 5 7 9 13 15 16 18 23 28 24 20 18 18 15 14 21 27 22 18 17 13 12 9 9 7 7 7 7 8 8 9 11 13 14 13
12 10 8 6 5 4 2 1 4 4 5 11 14 13 14 17 19 23 19 18 15 17 17 23 27 20 18 16 15 12 12 11 9 9 8 8 9 10 14 14 14 16 14
8 8 9 5 4 3 2 4 6 6 6 7 11 12 12 15 16 18 22 18 16 20 25 22 22 20 20 16 16 15 14 12 11 10 10 10 10 10 10 10 11 11 12
3 3 3 1 2 3 4 6 6 4 4 5 5 9 11 14 15 15 16 21 23 25 23 26 24 22 19 16 15 14 14 13 13 11 11 11 12 10 11 11 11 11 10
2 2 2 3 6 5 6 7 6 4 2 1 5 7 9 12 13 15 17 17 22 23 21 27 22 19 18 16 15 13 12 12 11 11 12 12 11 11 13 12 11 10 11
2 5 4 4 4 3 2 2 2 2 3 2 4 5 10 15 13 13 17 20 22 22 26 21 19 18 15 14 12 11 10 10 11 11 11 11 10 12 13 12 10 11 10
3 6 4 4 3 3 2 3 2 2 4 6 6 6 7 4 6 14 18 21 21 24 20 19 17 15 14 13 13 9 9 9 8 9 9 9 11 13 12 10 9 10 10
4 7 8 7 6 5 5 4 4 5 5 5 7 6 5 4 5 14 19 24 25 23 16 18 19 14 13 11 9 9 9 8 8 7 8 9 10 10 7 8 8 9 7
6 9 8 7 8 6 6 5 7 7 7 7 8 7 7 5 6 12 19 23 21 19 21 20 18 16 16 14 15 10 8 8 7 6 8 8 7 5 5 4 4 5 6
6 8 9 10 10 9 7 8 8 7 7 8 8 11 7 6 9 11 16 20 25 22 19 21 18 17 16 12 8 8 7 6 5 6 5 4 3 2 1 2 3 5 6
7 8 8 9 11 11 10 9 9 7 8 9 8 11 9 9 10 11 12 19 22 21 22 21 19 17 13 13 8 6 6 4 5 3 3 2 2 2 1 2 2 4 6
9 9 10 10 10 12 9 8 8 7 8 9 9 10 10 9 10 12 13 15 17 21 23 21 18 13 15 7 8 7 4 4 5 4 4 3 3 1 1 1 2 5 9
10 9 9 9 8 7 7 7 7 9 10 10 10 10 10 9 9 12 16 15 16 22 20 16 12 11 11 10 8 6 5 5 5 4 5 4 3 1 1 1 4 8 12
6 7 7 8 8 6 7 7 8 8 9 9 10 14 12 12 13 14 16 16 21 20 16 21 14 14 13 10 7 6 5 5 6 4 4 4 5 4 1 2 6 9 11
7 8 8 8 8 7 7 8 9 9 9 9 9 11 15 15 15 15 18 20 22 22 24 17 15 14 12 8 6 6 5 4 5 6 9 6 4 2 1 4 7 8 9
Wind_Direction
234 233 230 230 231 234 235 237 237 239 245 247 251 254 260 261 264 263 253 270 264 264 268 266 273 292 271 281 273 253 238 233 235 214 210 223 227 203 220 276 316 329 307
235 235 233 233 234 236 238 238 238 240 243 247 251 255 256 254 255 258 256 270 260 259 267 270 279 285 271 262 269 263 227 220 216 207 207 226 201 202 236 291 319 294 289
234 239 237 237 236 237 240 239 242 243 244 249 250 254 259 257 252 248 247 251 241 242 257 261 266 259 256 242 246 254 247 241 218 207 214 198 207 207 256 271 316 291 355
230 240 244 245 243 239 240 242 243 247 248 250 254 255 255 254 243 236 232 243 244 248 255 246 252 255 244 232 234 238 234 122 199 187 211 212 208 224 223 253 294 322 295
231 236 241 245 247 245 243 246 248 249 252 254 254 254 250 237 233 227 208 199 254 252 254 264 250 240 241 234 213 195 217 203 159 227 228 223 218 235 234 251 255 279 295
233 239 242 243 243 245 248 249 251 253 254 253 251 247 235 226 236 227 232 266 274 231 227 267 242 241 243 226 214 210 217 217 205 217 231 227 212 221 229 237 254 277 290
237 241 244 247 248 248 249 251 252 252 250 248 242 233 233 238 237 243 142 321 294 245 238 246 236 238 230 222 211 208 219 229 214 199 203 207 204 200 223 243 241 264 271
236 232 234 241 244 249 253 254 254 252 247 240 234 234 236 225 170 87 18 313 299 257 231 244 232 223 223 214 204 210 205 224 171 146 176 223 221 228 228 243 247 272 295
251 249 244 242 245 248 248 247 246 240 231 227 232 230 226 197 162 170 308 276 277 247 236 244 231 219 222 207 199 189 200 188 213 209 222 239 245 244 234 236 272 284 294
27 324 270 256 252 250 248 244 234 225 229 236 234 238 225 216 191 313 266 236 232 238 232 237 228 215 219 207 197 196 202 200 187 204 186 182 179 192 232 264 279 290 297
349 359 7 358 226 213 233 233 225 220 230 233 226 220 218 201 213 268 240 238 232 227 232 227 219 208 208 206 203 203 195 191 195 200 219 243 261 274 286 292 276 281 289
326 321 314 310 313 306 251 227 234 239 240 235 208 209 210 216 235 250 243 231 209 222 237 219 212 201 208 203 208 212 210 193 201 216 235 253 265 273 281 278 274 286 274
296 290 277 267 264 266 275 114 113 121 153 191 203 225 241 237 243 243 225 223 230 232 226 219 199 198 199 202 213 209 206 193 215 231 246 262 275 275 287 300 308 306 293
302 297 281 277 256 191 159 129 115 118 144 181 215 226 241 237 242 245 215 228 232 209 215 210 189 196 197 203 206 211 210 209 225 238 251 265 282 292 292 294 298 287 284
283 291 285 275 164 142 126 113 104 106 156 163 206 225 224 227 224 223 225 233 220 206 204 187 185 190 194 196 195 207 214 223 236 250 260 273 284 281 293 295 298 292 279
293 314 66 123 116 119 100 96 91 89 70 323 236 215 238 231 225 222 230 220 206 200 199 183 186 193 196 202 199 206 218 232 240 251 259 270 275 283 291 294 291 287 277
186 217 180 133 136 123 141 113 34 27 345 346 334 307 269 254 245 234 200 199 210 204 181 178 193 197 197 204 203 213 227 238 237 241 259 264 272 290 294 297 290 282 275
270 234 204 196 167 191 209 237 242 270 293 299 331 329 327 296 218 194 189 195 192 181 179 193 194 195 195 193 189 204 214 222 235 251 257 272 284 290 292 291 287 281 287
249 232 225 213 225 235 247 244 254 255 262 271 295 295 300 336 206 194 191 189 182 183 189 190 192 192 191 185 176 190 205 229 236 250 269 279 289 287 286 290 288 292 297
237 235 232 236 243 243 235 251 261 256 255 259 269 259 270 246 233 217 205 199 193 191 208 199 193 192 189 192 188 187 226 245 257 265 276 283 276 281 285 289 294 294 298
249 258 248 239 244 243 248 259 264 266 261 258 270 248 253 227 232 235 221 213 201 204 200 193 190 193 190 207 187 215 224 223 245 274 275 265 260 250 215 292 314 309 309
260 265 252 248 243 242 246 249 260 262 254 253 251 258 239 226 222 229 221 214 212 208 195 186 187 186 190 190 218 208 205 226 259 234 221 203 172 176 212 313 333 342 334
263 265 269 259 240 237 244 244 251 256 260 261 247 244 255 233 221 219 214 216 224 208 181 185 195 205 180 205 192 200 232 225 202 181 173 169 168 188 234 271 326 337 337
257 260 247 244 238 239 251 257 260 269 252 248 247 229 236 225 217 223 222 224 210 190 191 180 196 188 192 181 201 236 202 175 160 171 156 165 175 194 135 335 332 332 339
246 233 228 239 248 250 250 260 265 265 268 266 253 236 211 221 225 233 224 209 192 184 176 162 185 187 186 194 207 194 194 180 180 191 154 162 168 160 149 358 336 343 345
237 236 237 240 248 245 257 269 272 268 265 264 266 249 238 228 230 242 220 198 189 187 169 163 183 170 184 203 207 182 175 176 159 141 137 133 130 108 352 352 352 16 10